Location: Invercargill
(46.4000°S, 168.3500°E)
Time: 10:06:24
(UTC+12:00)

BREEZE-M DEB - Pass Details

Date: 14 May 2021
Orbit: 280 x 15959 km, 49.5° (Epoch: 15 June)

Event Time Altitude Azimuth Distance (km) Brightness Sun altitude
Rises 19:01:58 0° 297° (WNW) 3,381 8.3 -16.6°
Reaches altitude 10° 19:05:12 10° 298° (WNW) 1,702 6.4 -17.2°
Enters shadow 19:08:12 71° 14° (NNE) 348 1.7 -17.7°
